Location: Peyton Hall Observatory
(40.3466°N, 74.6516°W)
Time: 21:41:29
(UTC-05:00)

ISS - All Passes

Search period start: 23 November 2014 00:00
Search period end: 03 December 2014 00:00
Orbit: 408 x 417 km, 51.6° (Epoch: 23 November)

Date Brightness Start Highest point End Pass type
(mag) Time Alt. Az. Time Alt. Az. Time Alt. Az.
23 Nov - 00:25:06 10° SW 00:28:21 65° SE 00:31:37 10° ENE night (unlit)
23 Nov - 02:02:40 10° WNW 02:05:16 21° NNW 02:07:52 10° NNE night (unlit)
23 Nov - 03:41:36 10° NNW 03:42:53 12° N 03:44:09 10° NNE visible
23 Nov - 05:18:11 10° NNW 05:20:34 18° NNE 05:22:56 10° ENE visible
23 Nov - 06:54:18 10° NW 06:57:37 85° NE 07:00:55 10° SE daylight
23 Nov - 08:33:44 10° SW 08:33:47 10° SW 08:33:50 10° SW daylight
23 Nov - 23:35:43 10° SSW 23:38:43 34° SE 23:41:44 10° ENE night (unlit)
24 Nov - 01:12:26 10° W 01:15:23 30° NNW 01:18:20 10° NE night (unlit)
24 Nov - 02:51:21 10° NW 02:52:51 13° N 02:54:22 10° NNE night (unlit)
24 Nov - 04:28:39 10° NNW 04:30:35 15° NNE 04:32:31 10° NE visible
24 Nov - 06:04:38 10° NW 06:07:51 48° NNE 06:11:04 10° ESE visible
24 Nov - 07:41:53 10° W 07:44:16 18° SW 07:46:38 10° S daylight
24 Nov - 22:46:43 10° S 22:49:07 19° SE 22:51:30 10° E night (unlit)
25 Nov - 00:22:20 10° WSW 00:25:31 47° NNW 00:28:43 10° NE night (unlit)
25 Nov - 02:00:54 10° NW 02:02:48 14° NNW 02:04:42 10° NNE night (unlit)
25 Nov - 03:39:00 10° NNW 03:40:32 13° N 03:42:04 10° NE visible
25 Nov - 05:15:00 10° NW 05:17:59 30° NNE 05:20:58 10° E visible
25 Nov - 06:51:37 10° WNW 06:54:38 33° SW 06:57:38 10° SSE daylight
25 Nov - 21:59:05 10° SE 21:59:31 10° SE 21:59:56 10° ESE night (unlit)
25 Nov - 23:32:23 10° SW 23:35:40 83° NW 23:38:58 10° NE night (unlit)
26 Nov - 01:10:24 10° WNW 01:12:44 18° NNW 01:15:04 10° NNE night (unlit)
26 Nov - 02:49:07 10° NNW 02:50:24 12° N 02:51:41 10° NNE night (unlit)
26 Nov - 04:25:22 10° NNW 04:28:00 22° NNE 04:30:38 10° ENE visible
26 Nov - 06:01:37 10° WNW 06:04:53 63° SW 06:08:09 10° SE visible
26 Nov - 22:42:39 10° SW 22:45:50 52° SE 22:49:03 10° ENE night (unlit)
27 Nov - 00:19:56 10° W 00:22:39 23° NNW 00:25:23 10° NNE night (unlit)
27 Nov - 01:58:53 10° NNW 02:00:13 12° N 02:01:32 10° NNE night (unlit)
27 Nov - 03:35:41 10° NNW 03:37:54 17° NNE 03:40:07 10° ENE visible
27 Nov - 05:11:44 10° NW 05:15:01 70° NE 05:18:18 10° ESE visible
27 Nov - 06:49:48 10° WSW 06:51:15 12° SW 06:52:43 10° SSW daylight
27 Nov - 21:53:11 10° SSW 21:56:02 28° SE 21:58:53 10° ENE night (unlit)
27 Nov - 23:29:33 10° W 23:32:36 34° NNW 23:35:39 10° NE night (unlit)
28 Nov - 01:08:21 10° NW 01:09:59 13° N 01:11:37 10° NNE night (unlit)
28 Nov - 02:45:56 10° NNW 02:47:43 14° NNE 02:49:30 10° NE night (unlit)
28 Nov - 04:21:54 10° NW 04:25:02 40° NNE 04:28:10 10° ESE visible
28 Nov - 05:58:52 10° W 06:01:31 22° SW 06:04:09 10° S visible
28 Nov - 21:04:13 10° SSE 21:06:14 15° SE 21:08:15 10° E night (unlit)
28 Nov - 22:39:18 10° WSW 22:42:33 56° NNW 22:45:48 10° NE night (unlit)
29 Nov - 00:17:41 10° NW 00:19:44 15° NNW 00:21:47 10° NNE night (unlit)
29 Nov - 01:56:02 10° NNW 01:57:26 12° N 01:58:51 10° NNE night (unlit)
29 Nov - 03:32:05 10° NW 03:34:56 27° NNE 03:37:48 10° E visible
29 Nov - 05:08:32 10° WNW 05:11:39 41° SW 05:14:47 10° SSE visible
29 Nov - 21:49:14 10° SW 21:52:31 80° SE 21:55:48 10° NE night (unlit)
29 Nov - 23:26:59 10° WNW 23:29:28 19° NNW 23:31:57 10° NNE night (unlit)
30 Nov - 01:05:51 10° NNW 01:07:06 12° N 01:08:21 10° NNE night (unlit)
30 Nov - 02:42:14 10° NNW 02:44:43 19° NNE 02:47:12 10° ENE night (unlit)
30 Nov - 04:18:23 10° NW 04:21:41 80° SW 04:24:58 10° SE visible
30 Nov - 20:59:23 10° SSW 21:02:30 41° SE 21:05:38 10° ENE night (unlit)
30 Nov - 22:36:21 10° W 22:39:13 27° NNW 22:42:05 10° NE night (unlit)
01 Dec - 00:15:17 10° NNW 00:16:42 12° N 00:18:07 10° NNE night (unlit)
01 Dec - 01:52:21 10° NNW 01:54:24 15° NNE 01:56:27 10° NE night (unlit)
01 Dec - 03:28:20 10° NW 03:31:35 56° NNE 03:34:50 10° ESE night (unlit)
01 Dec - 05:05:51 10° W 05:07:54 15° SW 05:09:55 10° S visible
01 Dec - 20:09:53 10° S 20:12:31 22° SE 20:15:08 10° E night (unlit)
01 Dec - 21:45:50 10° WSW 21:48:58 40° NNW 21:52:07 10° NE night (unlit)
01 Dec - 23:24:29 10° NW 23:26:16 14° NNW 23:28:03 10° NNE night (unlit)
02 Dec - 01:02:22 10° NNW 01:03:59 13° N 01:05:37 10° NE night (unlit)
02 Dec - 02:38:19 10° NW 02:41:22 34° NNE 02:44:25 10° E night (unlit)
02 Dec - 04:15:03 10° WNW 04:17:55 28° SW 04:20:47 10° SSE visible
02 Dec - 19:21:09 10° SSE 19:22:32 12° SE 19:23:55 10° ESE night (unlit)
02 Dec - 20:55:28 10° WSW 20:58:44 71° NW 21:02:02 10° NE night (unlit)
02 Dec - 22:33:36 10° WNW 22:35:50 17° NNW 22:38:03 10° NNE night (unlit)
